ONEWEB-0623 (55164 NORAD) Tracking and Keplerian Element Data

This shows tracking and keplerian element data for the satellite.

Feedback or suggestion? Click here.




ElementValue
Catalog55164
NameONEWEB-0623
Epoch Orbit130
Epoch Day13.91667824
Epoch Year2023
RAAN284.1417
Inclination86.5101
Eccentricity0.0012858
Argument of Perigee210.2315
Mean Anonmoly65.2997
Mean Motion14.91702319
Decay Rate-0.0004967
L11 55164U 23004AA 23013.91667824 -.00049670 00000+0 -49754-2 0 9990
L22 55164 86.5101 284.1417 0012858 210.2315 65.2997 14.91702319 1308



Live tracking and technical data element details for ONEWEB-0623 (NORAD 55164). ONEWEB-0623 can be tracked NOW for your location showing map with azimuth and elevation plus other details from your city location.







IsCatalogInMostPopularTable: catalog: 55164, numindb: 6
Update: records affected: 1



GetName: 55164 ONEWEB-0623

Hit Count: updated at: Tue, 07 Feb 2023 13:55:03 GMT